Columbia Airport, CA

8:40 AM PST on December 08, 2019 (GMT -0800)
Columbia Airport

Weather History for KO22 - November, 2019

Change the Weather History Date:

Tuesday, November 19, 2019

  Actual Average (WUND) Record (WUND)
Temperature  
Mean Temperature 53 °F -  
Max Temperature 64 °F - - (-1)
Min Temperature 41 °F - - (-1)
Degree Days  
Heating Degree Days 12    
Growing Degree Days 3 (Base 50)    
Moisture  
Dew Point 40 °F    
Average Humidity 69    
Maximum Humidity 100    
Minimum Humidity 39    
Precipitation  
Precipitation 0.00 in - - ()
Sea Level Pressure  
Sea Level Pressure 29.73 in    
Wind  
Wind Speed 1 mph ()    
Max Wind Speed 8 mph    
Max Gust Speed -    
Visibility 10.0 miles    
Events      
Averages and records for this station are not official NWS values.
T = Trace of Precipitation, MM = Missing Value Source: Averaged Metar Reports

Daily Weather History Graph

Daily Weather History Graph

Search for Another Location

Airport or City:

Astronomy

Nov. 19, 2019 Rise Set
Actual Time 6:46 AM PST 4:47 PM PST
Civil Twilight 6:18 AM PST 5:15 PM PST
Nautical Twilight 5:46 AM PST 5:47 PM PST
Astronomical Twilight 5:14 AM PST 6:18 PM PST
Moon 11:47 PM PST (11/19) 1:00 PM PST (11/19)
Length of Visible Light 10h 57m
Length of Day
10h 00m
Waning Gibbous, 50% of the Moon is Illuminated
Nov 19
Waning Gibbous
Nov 19
Last Quarter
Nov 26
New
Dec 3
First Quarter
Dec 11
Full

Hourly Weather History & Observations

Time (PST) Temp. Windchill Dew Point Humidity Pressure Visibility Wind Dir Wind Speed Gust Speed Precip Events Conditions
12:15 AM 46.4 °F - 37.4 °F 71% 29.88 in 10.0 mi Calm Calm - N/A   Clear
12:35 AM 46.4 °F - 37.4 °F 71% 29.87 in 10.0 mi Calm Calm - N/A   Clear
12:55 AM 46.4 °F - 37.4 °F 71% 29.86 in 10.0 mi Calm Calm - N/A   Clear
1:15 AM 46.4 °F - 37.4 °F 71% 29.85 in 10.0 mi Calm Calm - N/A   Clear
1:35 AM 44.6 °F - 37.4 °F 76% 29.84 in 10.0 mi Calm Calm - N/A   Clear
1:55 AM 46.4 °F - 37.4 °F 71% 29.83 in 10.0 mi Calm Calm - N/A   Clear
2:15 AM 46.4 °F - 37.4 °F 71% 29.83 in 10.0 mi Calm Calm - N/A   Clear
2:35 AM 44.6 °F - 35.6 °F 71% 29.82 in 10.0 mi Calm Calm - N/A   Clear
2:55 AM 46.4 °F - 35.6 °F 66% 29.82 in 10.0 mi Calm Calm - N/A   Clear
3:15 AM 48.2 °F - 35.6 °F 62% 29.82 in 10.0 mi Calm Calm - N/A   Clear
3:35 AM 48.2 °F - 35.6 °F 62% 29.82 in 10.0 mi Calm Calm - N/A   Clear
3:55 AM 48.2 °F - 35.6 °F 62% 29.82 in 10.0 mi Calm Calm - N/A   Clear
4:15 AM 48.2 °F - 35.6 °F 62% 29.82 in 10.0 mi Calm Calm - N/A   Clear
4:55 AM 46.4 °F - 35.6 °F 66% 29.81 in 10.0 mi Calm Calm - N/A   Partly Cloudy
5:15 AM 46.4 °F - 33.8 °F 62% 29.81 in 10.0 mi Calm Calm - N/A   Partly Cloudy
5:35 AM 46.4 °F 44.3 °F 33.8 °F 62% 29.80 in 10.0 mi Variable 4.6 mph - N/A   Clear
5:55 AM 46.4 °F - 33.8 °F 62% 29.79 in 10.0 mi Calm Calm - N/A   Clear
6:15 AM 46.4 °F - 33.8 °F 62% 29.79 in 10.0 mi Calm Calm - N/A   Clear
6:35 AM 46.4 °F - 33.8 °F 62% 29.79 in 10.0 mi Calm Calm - N/A   Clear
6:55 AM 46.4 °F - 35.6 °F 66% 29.79 in 10.0 mi Calm Calm - N/A   Clear
7:15 AM 46.4 °F - 35.6 °F 66% 29.79 in 10.0 mi Calm Calm - N/A   Clear
7:35 AM 44.6 °F - 35.6 °F 71% 29.79 in 10.0 mi North - - N/A   Clear
7:55 AM 48.2 °F - 35.6 °F 62% 29.79 in 10.0 mi Calm Calm - N/A   Clear
8:15 AM 51.8 °F - 37.4 °F 58% 29.78 in 10.0 mi Calm Calm - N/A   Clear
8:35 AM 55.4 °F - 37.4 °F 51% 29.79 in 10.0 mi Calm Calm - N/A   Clear
8:55 AM 59.0 °F - 37.4 °F 45% 29.79 in 10.0 mi Calm Calm - N/A   Scattered Clouds
9:15 AM 60.8 °F - 37.4 °F 42% 29.78 in 10.0 mi Calm Calm - N/A   Partly Cloudy
9:35 AM 62.6 °F - 37.4 °F 39% 29.79 in 10.0 mi South 4.6 mph - N/A   Scattered Clouds
9:55 AM 60.8 °F - 42.8 °F 52% 29.79 in 10.0 mi SW 4.6 mph - N/A   Overcast
10:15 AM 59.0 °F - 42.8 °F 55% 29.78 in 10.0 mi Variable 6.9 mph - N/A   Mostly Cloudy
10:35 AM 62.6 °F - 44.6 °F 52% 29.78 in 10.0 mi Variable 5.8 mph - N/A   Partly Cloudy
11:15 AM 60.8 °F - 48.2 °F 63% 29.78 in 10.0 mi SW 5.8 mph - N/A   Overcast
11:35 AM 60.8 °F - 48.2 °F 63% 29.76 in 10.0 mi Calm Calm - N/A   Overcast
11:55 AM 62.6 °F - 48.2 °F 59% 29.75 in 10.0 mi South 3.5 mph - N/A   Mostly Cloudy
12:15 PM 60.8 °F - 48.2 °F 63% 29.74 in 10.0 mi Calm Calm - N/A   Mostly Cloudy
12:35 PM 62.6 °F - 48.2 °F 59% 29.72 in 10.0 mi Variable 4.6 mph - N/A   Overcast
1:15 PM 62.6 °F - 46.4 °F 55% 29.70 in 10.0 mi Variable 4.6 mph - N/A   Overcast
1:35 PM 64.4 °F - 44.6 °F 49% 29.69 in 10.0 mi SSW 5.8 mph - N/A   Mostly Cloudy
1:55 PM 64.4 °F - 46.4 °F 52% 29.69 in 10.0 mi WSW 8.1 mph - N/A   Clear
2:55 PM 62.6 °F - 44.6 °F 52% 29.69 in 10.0 mi SW 5.8 mph - N/A   Clear
3:15 PM 60.8 °F - 44.6 °F 55% 29.68 in 10.0 mi SW 5.8 mph - N/A   Clear
3:35 PM 60.8 °F - 44.6 °F 55% 29.68 in 10.0 mi Variable 5.8 mph - N/A   Clear
4:15 PM 59.0 °F - 44.6 °F 59% 29.67 in 10.0 mi Variable 3.5 mph - N/A   Clear
4:35 PM 57.2 °F - 44.6 °F 63% 29.66 in 10.0 mi Calm Calm - N/A   Clear
4:55 PM 55.4 °F - 44.6 °F 67% 29.65 in 10.0 mi Calm Calm - N/A   Clear
5:35 PM 50.0 °F - 44.6 °F 82% 29.64 in 10.0 mi Calm Calm - N/A   Clear
5:55 PM 48.2 °F - 42.8 °F 82% 29.63 in 10.0 mi Calm Calm - N/A   Clear
6:15 PM 48.2 °F - 42.8 °F 82% 29.63 in 10.0 mi Calm Calm - N/A   Partly Cloudy
6:35 PM 46.4 °F - 42.8 °F 87% 29.62 in 10.0 mi Calm Calm - N/A   Mostly Cloudy
6:55 PM 46.4 °F - 42.8 °F 87% 29.62 in 10.0 mi Calm Calm - N/A   Mostly Cloudy
7:35 PM 46.4 °F - 42.8 °F 87% 29.62 in 10.0 mi Calm Calm - N/A   Overcast
7:55 PM 46.4 °F - 42.8 °F 87% 29.61 in 10.0 mi Calm Calm - N/A   Mostly Cloudy
8:15 PM 46.4 °F - 42.8 °F 87% 29.60 in 10.0 mi Calm Calm - N/A   Scattered Clouds
8:35 PM 44.6 °F - 42.8 °F 93% 29.60 in 10.0 mi Calm Calm - N/A   Mostly Cloudy
8:55 PM 44.6 °F - 41.0 °F 87% 29.59 in 10.0 mi Calm Calm - N/A   Scattered Clouds
9:15 PM 44.6 °F - 42.8 °F 93% 29.59 in 10.0 mi Calm Calm - N/A   Partly Cloudy
9:35 PM 44.6 °F - 41.0 °F 87% 29.59 in 10.0 mi Calm Calm - N/A   Partly Cloudy
9:55 PM 42.8 °F 41.1 °F 41.0 °F 93% 29.58 in 10.0 mi Variable 3.5 mph - N/A   Mostly Cloudy
10:15 PM 42.8 °F - 41.0 °F 93% 29.57 in 10.0 mi Calm Calm - N/A   Mostly Cloudy
10:35 PM 42.8 °F - 41.0 °F 93% 29.57 in 10.0 mi Calm Calm - N/A   Mostly Cloudy
10:55 PM 42.8 °F - 39.2 °F 87% 29.56 in 10.0 mi Calm Calm - N/A   Mostly Cloudy
11:15 PM 42.8 °F - 41.0 °F 93% 29.55 in 10.0 mi Calm Calm - N/A   Overcast
11:35 PM 41.0 °F - 41.0 °F 100% 29.54 in 10.0 mi Calm Calm - N/A   Overcast